El Paso, TX

6:54 AM MDT on August 26, 2016 (GMT -0600)
El Paso International

Weather History for KELP - August, 2013

Change the Weather History Date:

Monday, August 26, 2013

  Actual Average Record
Temperature  
Mean Temperature 83 °F 80 °F  
Max Temperature 92 °F 92 °F 103 °F (2002)
Min Temperature 73 °F 69 °F 56 °F (1973)
Degree Days  
Heating Degree Days 0 0  
Month to date heating degree days 0 0  
Since 1 June heating degree days 0 0  
Since 1 July heating degree days 0 0  
Cooling Degree Days 18 15  
Month to date cooling degree days 497 424  
Year to date cooling degree days 2213 1855  
Since 1 June cooling degree days 1705 1478  
Growing Degree Days 32 (Base 50)    
Moisture  
Dew Point 53 °F    
Average Humidity 37    
Maximum Humidity 50    
Minimum Humidity 23    
Precipitation  
Precipitation 0.00 in 0.05 in 1.70 in (1884)
Month to date precipitation 0.36 1.76  
Year to date precipitation 4.54 6.07  
Snow  
Snow 0.00 in - - ()
Month to date snowfall 0.0  
Since 1 June snowfall T  
Since 1 July snowfall T  
Snow Depth 0.00 in    
Sea Level Pressure  
Sea Level Pressure 29.91 in    
Wind  
Wind Speed 10 mph (ESE)    
Max Wind Speed 21 mph    
Max Gust Speed 39 mph    
Visibility 10 miles    
Events      
T = Trace of Precipitation, MM = Missing Value Source: NWS Daily Summary

Daily Weather History Graph

Daily Weather History Graph

Search for Another Location

Airport or City:

Trip Planner

Search our weather history database for the weather conditions in past years. The results will help you decide how hot, cold, wet, or windy it might be!

Date:

Astronomy

Aug. 26, 2013 Rise Set
Actual Time 6:37 AM MDT 7:36 PM MDT
Civil Twilight 6:12 AM MDT 8:01 PM MDT
Nautical Twilight 5:42 AM MDT 8:31 PM MDT
Astronomical Twilight 5:12 AM MDT 9:01 PM MDT
Moon 11:14 PM MDT 12:16 PM MDT
Length of Visible Light 13h 49m
Length of Day
12h 58m
Waning Gibbous, 66% of the Moon is Illuminated
Aug 26
Waning Gibbous
Aug 28
Last Quarter
Sep 5
New
Sep 12
First Quarter
Sep 19
Full

Hourly Weather History & Observations

Time (MDT) Temp. Heat Index Dew Point Humidity Pressure Visibility Wind Dir Wind Speed Gust Speed Precip Events Conditions
12:51 AM 81.0 °F 80.4 °F 53.1 °F 38% 29.92 in 10.0 mi ESE 12.7 mph - N/A   Scattered Clouds
1:51 AM 80.1 °F 79.9 °F 53.1 °F 39% 29.92 in 10.0 mi ESE 10.4 mph - N/A   Clear
2:51 AM 79.0 °F - 54.0 °F 42% 29.91 in 10.0 mi ESE 9.2 mph - N/A   Clear
3:51 AM 77.0 °F - 54.0 °F 45% 29.92 in 10.0 mi East 5.8 mph - N/A   Clear
4:51 AM 75.0 °F - 53.1 °F 46% 29.93 in 10.0 mi East 3.5 mph - N/A   Clear
5:51 AM 75.0 °F - 54.0 °F 48% 29.94 in 10.0 mi Calm Calm - N/A   Clear
6:51 AM 73.0 °F - 54.0 °F 51% 29.96 in 10.0 mi Calm Calm - N/A   Partly Cloudy
7:51 AM 75.9 °F - 55.0 °F 48% 29.98 in 10.0 mi ENE 4.6 mph - N/A   Partly Cloudy
8:51 AM 79.0 °F - 55.0 °F 44% 29.99 in 10.0 mi Variable 3.5 mph - N/A   Partly Cloudy
9:51 AM 82.0 °F 81.4 °F 55.0 °F 39% 29.99 in 10.0 mi SE 12.7 mph - N/A   Clear
10:51 AM 84.0 °F 82.9 °F 55.0 °F 37% 29.98 in 10.0 mi East 9.2 mph 16.1 mph N/A   Partly Cloudy
11:51 AM 87.1 °F 85.3 °F 55.0 °F 33% 29.96 in 10.0 mi SE 16.1 mph 23.0 mph N/A   Partly Cloudy
12:51 PM 88.0 °F 85.7 °F 53.1 °F 30% 29.93 in 10.0 mi SE 17.3 mph 21.9 mph N/A   Scattered Clouds
1:51 PM 90.0 °F - 51.1 °F 26% 29.91 in 10.0 mi East 11.5 mph 24.2 mph N/A   Scattered Clouds
2:51 PM 91.0 °F - 52.0 °F 26% 29.88 in 10.0 mi SE 12.7 mph 21.9 mph N/A   Scattered Clouds
3:51 PM 90.0 °F - 50.0 °F 25% 29.86 in 10.0 mi SE 12.7 mph 20.7 mph N/A   Mostly Cloudy
4:51 PM 90.0 °F - 50.0 °F 25% 29.85 in 10.0 mi ESE 12.7 mph - N/A   Scattered Clouds
5:51 PM 91.0 °F - 48.9 °F 23% 29.84 in 10.0 mi East 13.8 mph 21.9 mph N/A   Scattered Clouds
6:51 PM 89.1 °F - 48.9 °F 25% 29.84 in 10.0 mi ESE 12.7 mph - N/A   Scattered Clouds
7:51 PM 87.1 °F - 51.1 °F 29% 29.84 in 10.0 mi East 11.5 mph 24.2 mph N/A   Scattered Clouds
8:51 PM 84.9 °F - 51.1 °F 31% 29.86 in 10.0 mi East 11.5 mph - N/A   Partly Cloudy
9:51 PM 82.9 °F - 52.0 °F 34% 29.88 in 10.0 mi East 12.7 mph - N/A   Clear
10:51 PM 81.0 °F - 52.0 °F 36% 29.90 in 10.0 mi ESE 10.4 mph - N/A   Partly Cloudy
11:51 PM 80.1 °F 79.9 °F 53.1 °F 39% 29.89 in 10.0 mi ESE 12.7 mph - N/A   Partly Cloudy